Weather History for KSTJ - September, 2014

Change the Weather History Date:

Monday, September 1, 2014

  Actual Average Record
Temperature  
Mean Temperature 73 °F 72 °F  
Max Temperature 82 °F 84 °F 104 °F (1922)
Min Temperature 64 °F 60 °F 41 °F (1967)
Degree Days  
Heating Degree Days 0 0  
Month to date heating degree days 0 0  
Since 1 July heating degree days 6 5  
Cooling Degree Days 8 7  
Month to date cooling degree days 8 7  
Year to date cooling degree days 1057 1084  
Growing Degree Days 23 (Base 50)    
Moisture  
Dew Point 66 °F    
Average Humidity 81    
Maximum Humidity 100    
Minimum Humidity 62    
Precipitation  
Precipitation 0.15 in 0.16 in 2.35 in (1926)
Month to date precipitation 0.15 0.16  
Year to date precipitation 22.70 26.46  
Sea Level Pressure  
Sea Level Pressure 29.83 in    
Wind  
Wind Speed 8 mph (SW)    
Max Wind Speed 25 mph    
Max Gust Speed 32 mph    
Visibility 10 miles    
Events Rain , Thunderstorm    
T = Trace of Precipitation, MM = Missing Value Source: NWS Daily Summary

Daily Weather History Graph

Daily Weather History Graph

Search for Another Location

Airport or City:

Trip Planner

Search our weather history database for the weather conditions in past years. The results will help you decide how hot, cold, wet, or windy it might be!

Date:

Astronomy

Sep. 01, 2014 Rise Set
Actual Time 6:47 AM CDT 7:50 PM CDT
Civil Twilight 6:19 AM CDT 8:18 PM CDT
Nautical Twilight 5:46 AM CDT 8:51 PM CDT
Astronomical Twilight 5:12 AM CDT 9:25 PM CDT
Moon 1:33 PM CDT (9/1) 11:53 PM CDT (9/1)
Length of Visible Light 13h 58m
Length of Day
13h 03m
Waxing Crescent, 42% of the Moon is Illuminated
Sep 1
Waxing Crescent
Sep 2
First Quarter
Sep 8
Full
Sep 15
Last Quarter
Sep 24
New

Hourly Weather History & Observations

Time (CDT) Temp. Heat Index Dew Point Humidity Pressure Visibility Wind Dir Wind Speed Gust Speed Precip Events Conditions
12:19 AM 68.0 °F - 64.9 °F 90% 29.78 in 4.0 mi South 13.8 mph - 0.02 in Rain , Thunderstorm Light Thunderstorms and Rain
12:53 AM 66.9 °F - 66.0 °F 97% 29.81 in 7.0 mi SSW 9.2 mph - 0.09 in Rain , Thunderstorm Rain
1:01 AM 66.9 °F - 66.0 °F 97% 29.81 in 7.0 mi South 12.7 mph - 0.02 in Rain , Thunderstorm Thunderstorms and Rain
1:17 AM 66.9 °F - 66.0 °F 97% 29.82 in 10.0 mi SSW 12.7 mph - 0.04 in Rain , Thunderstorm Light Rain
1:23 AM 66.9 °F - 66.0 °F 97% 29.81 in 10.0 mi South 16.1 mph 20.7 mph 0.04 in Rain Light Rain
1:50 AM 66.2 °F - 64.4 °F 94% 29.81 in 10.0 mi SSW 17.3 mph 27.6 mph 0.06 in Rain Light Rain
1:53 AM 66.9 °F - 64.9 °F 93% 29.79 in 10.0 mi SSW 17.3 mph - 0.06 in Rain Light Rain
2:15 AM 66.9 °F - 64.9 °F 93% 29.81 in 10.0 mi South 18.4 mph 27.6 mph 0.01 in Rain , Thunderstorm Light Rain
2:30 AM 66.9 °F - 64.9 °F 93% 29.83 in 10.0 mi SSW 11.5 mph - 0.03 in Rain Light Rain
2:53 AM 66.9 °F - 64.9 °F 93% 29.80 in 10.0 mi South 15.0 mph - 0.07 in Rain Rain
3:29 AM 66.9 °F - 64.9 °F 93% 29.72 in 10.0 mi SSE 18.4 mph 28.8 mph 0.04 in Rain Light Rain
3:53 AM 66.9 °F - 64.9 °F 93% 29.73 in 10.0 mi South 13.8 mph - 0.04 in   Partly Cloudy
4:53 AM 66.9 °F - 64.0 °F 90% 29.72 in 10.0 mi South 15.0 mph - N/A   Clear
5:53 AM 66.0 °F - 64.0 °F 93% 29.76 in 10.0 mi SW 8.1 mph - N/A   Clear
6:40 AM 66.0 °F - 64.0 °F 93% 29.81 in 10.0 mi West 8.1 mph - N/A   Mostly Cloudy
6:53 AM 66.9 °F - 64.0 °F 90% 29.80 in 10.0 mi WSW 10.4 mph - N/A   Overcast
7:24 AM 66.9 °F - 64.0 °F 90% 29.83 in 10.0 mi SW 9.2 mph - N/A   Scattered Clouds
7:53 AM 66.9 °F - 64.9 °F 93% 29.82 in 10.0 mi WSW 5.8 mph - N/A   Mostly Cloudy
8:53 AM 68.0 °F - 64.9 °F 90% 29.84 in 10.0 mi WSW 9.2 mph - N/A   Overcast
9:01 AM 68.0 °F - 64.9 °F 90% 29.87 in 10.0 mi WSW 9.2 mph - N/A   Overcast
10:15 AM 72.0 °F - 66.0 °F 81% 29.86 in 10.0 mi WSW 11.5 mph - N/A   Scattered Clouds
10:45 AM 73.0 °F - 66.0 °F 79% 29.87 in 10.0 mi West 9.2 mph - N/A   Mostly Cloudy
10:53 AM 73.0 °F - 66.0 °F 79% 29.86 in 10.0 mi West 12.7 mph - N/A   Mostly Cloudy
11:35 AM 73.9 °F - 66.9 °F 79% 29.88 in 10.0 mi WSW 10.4 mph - N/A   Scattered Clouds
11:50 AM 75.2 °F - 66.2 °F 73% 29.88 in 10.0 mi WSW 12.7 mph - N/A   Mostly Cloudy
11:53 AM 75.0 °F - 66.9 °F 76% 29.86 in 10.0 mi WSW 9.2 mph - N/A   Mostly Cloudy
12:53 PM 78.1 °F - 68.0 °F 71% 29.87 in 10.0 mi WSW 10.4 mph - N/A   Scattered Clouds
1:53 PM 79.0 °F - 66.9 °F 66% 29.87 in 10.0 mi West 6.9 mph - N/A   Mostly Cloudy
2:53 PM 79.0 °F - 68.0 °F 69% 29.86 in 10.0 mi SW 6.9 mph - N/A   Mostly Cloudy
3:53 PM 80.1 °F 82.3 °F 66.9 °F 64% 29.85 in 10.0 mi West 6.9 mph - N/A   Overcast
4:53 PM 80.1 °F 82.3 °F 66.9 °F 64% 29.85 in 10.0 mi West 6.9 mph - N/A   Scattered Clouds
5:53 PM 79.0 °F - 66.9 °F 66% 29.85 in 10.0 mi WNW 5.8 mph - N/A   Scattered Clouds
6:53 PM 79.0 °F - 69.1 °F 72% 29.84 in 10.0 mi West 4.6 mph - N/A   Clear
7:53 PM 73.0 °F - 68.0 °F 84% 29.83 in 10.0 mi North 8.1 mph - N/A   Scattered Clouds
8:53 PM 69.1 °F - 66.9 °F 93% 29.85 in 10.0 mi North 3.5 mph - N/A   Clear
9:53 PM 66.9 °F - 64.9 °F 93% 29.87 in 10.0 mi Calm Calm - N/A   Clear
10:53 PM 66.9 °F - 64.9 °F 93% 29.86 in 10.0 mi South 5.8 mph - N/A   Clear
11:53 PM 64.9 °F - 64.0 °F 97% 29.88 in 10.0 mi Calm Calm - N/A   Clear